Location: Prairie View Elementary School
(39.8322°N, 99.5698°W)
Time: 07:43:43
(UTC+00:00)

Cosmos 1241 Rocket - Pass Details

Date: 08 December 2019
Orbit: 943 x 1005 km, 65.8° (Epoch: 28 January)

Event Time Altitude Azimuth Distance (km) Brightness Sun altitude
Exits shadow 11:19:43 67° 329° (NNW) 1,016 4.3 -27.5°
Maximum altitude 11:20:37 89° 248° (WSW) 948 4.3 -27.3°
Drops below altitude 10° 11:26:50 10° 152° (SSE) 2,660 7.2 -26.1°
Sets 11:29:22 0° 152° (SSE) 3,608 8.0 -25.6°
